Preview of NWS' New Version of Forecast
This preview is not operational and should not be used for support decisions.

Regional Weather Roundup (RWR)

Issued by National Weather Service (NWS)

                            
000
ASUS43 KLSX 211907
RWRMO 

WEATHER SUMMARY FOR MISSOURI
NATIONAL WEATHER SERVICE SPRINGFIELD MO
200 PM CDT SAT SEP 21 2019

NOTE: "FAIR" INDICATES FEW OR NO CLOUDS BELOW 12,000 FEET WITH NO
       SIGNIFICANT WEATHER AND/OR OBSTRUCTIONS TO VISIBILITY.
       CURRENT SKY AND/OR WEATHER CONDITIONS ARE NOT AVAILABLE FOR
       CHILLICOTHE AND FARMINGTON.

MOZ001>031-035>038-043-044-053-054-212000-
...NORTHERN AND WESTERN MISSOURI...
  
CITY           SKY/WX    TMP DP  RH WIND       PRES   REMARKS
KANSAS CTY INT CLOUDY    74  74 100 S20G29    29.95S                  
KANSAS C DTWN  TSTM      74  70  87 S22G35    29.95F FOG              
LEE'S SUMMIT   CLOUDY    76  70  82 S23G35    30.00R                  
ST JOSEPH      CLOUDY    77  72  84 S17G25    29.90F                  
CHILLICOTHE      N/A     76  72  87 S8        29.98F                  
KIRKSVILLE     CLOUDY    78  71  79 S10G22    30.01F                  
     
$$
MOZ066>068-077>081-088>096-101>105-212000-
...SOUTHWEST MISSOURI...
  
CITY           SKY/WX    TMP DP  RH WIND       PRES   REMARKS
SPRINGFIELD    MOSUNNY   84  68  58 S13       30.07F                  
JOPLIN         MOSUNNY   79  71  76 S14       30.04F                  
BRANSON        PTSUNNY   82  68  61 SE12      30.13F                  
               
$$
MOZ032>034-039>042-045>050-055>058-069>072-212000-
...CENTRAL MISSOURI...  
  
CITY           SKY/WX    TMP DP  RH WIND       PRES   REMARKS
COLUMBIA       CLOUDY    80  69  69 S15       30.05F                  
JEFFERSON CITY LGT RAIN  78  71  79 SW6       30.05F                  
ROLLA          PTSUNNY   82  68  62 S12G26    30.09F                  
SEDALIA        PTSUNNY   77  70  79 S21G29    30.02F                  
WHITEMAN AFB   PTSUNNY   79  71  75 S24       29.95F                  
WARRENSBURG    CLOUDY    79  68  69 S22G28    29.99F                  
OSAGE BEACH    CLOUDY    79  71  76 SW9       30.07F                  
               
$$
MOZ051-052-059>065-212000-
...EAST CENTRAL MISSOURI...
  
CITY           SKY/WX    TMP DP  RH WIND       PRES   REMARKS
ST LOUIS INTL  PTSUNNY   80  68  66 S15G23    30.10F                  
SPIRIT OF STL  CLOUDY    79  70  74 S7        30.08F                  
ST CHARLES       N/A    N/A N/A N/A MISG      30.08F                  
                   
$$
MOZ072>076-082>087-097>100-106>115-212000-
...SOUTH CENTRAL AND SOUTHEAST MISSOURI...
  
CITY           SKY/WX    TMP DP  RH WIND       PRES   REMARKS
CAPE GIRARDEAU FAIR      86  64  47 SW10G18   30.14F                  
FARMINGTON     PTSUNNY   81  70  69 S20G25    30.15F                  
POPLAR BLUFF   FAIR      83  69  62 SW10      30.14F HAZE             
WEST PLAINS    HVY RAIN  81  70  69 S8        30.15F                  
                                       
$$